10.05.2024;16:00;4
10.05.2024;15:00;4
10.05.2024;14:00;4
10.05.2024;13:00;3
10.05.2024;12:00;5
10.05.2024;11:00;7
10.05.2024;10:00;11
10.05.2024;09:00;18
10.05.2024;08:00;15
10.05.2024;07:00;12
10.05.2024;06:00;13
10.05.2024;05:00;10
10.05.2024;04:00;9
10.05.2024;03:00;8
10.05.2024;02:00;8
10.05.2024;01:00;11
10.05.2024;00:00;8
09.05.2024;23:00;10
09.05.2024;22:00;13
09.05.2024;21:00;8
09.05.2024;20:00;3
09.05.2024;19:00;3
09.05.2024;18:00;2
09.05.2024;17:00;2
09.05.2024;16:00;2
09.05.2024;15:00;3
09.05.2024;14:00;3
09.05.2024;13:00;3
09.05.2024;12:00;3
09.05.2024;11:00;4
09.05.2024;10:00;5
09.05.2024;09:00;9
09.05.2024;08:00;10
09.05.2024;07:00;9
09.05.2024;06:00;9
09.05.2024;05:00;10
09.05.2024;04:00;9
09.05.2024;03:00;9
09.05.2024;02:00;10
09.05.2024;01:00;12
09.05.2024;00:00;19
08.05.2024;23:00;12
08.05.2024;22:00;8
08.05.2024;21:00;7
08.05.2024;20:00;7
08.05.2024;19:00;5
08.05.2024;18:00;6
08.05.2024;17:00;5
